Time,TemperatureF,DewpointF,PressureIn,WindDirection,WindDirectionDegrees,WindSpeedMPH,WindSpeedGustMPH,Humidity,HourlyPrecipIn,Conditions,Clouds,dailyrainin,SoftwareType,DateUTC
2013-07-27 00:00:00,48.0,41.5,30.09,SSW,202,0.0,3.0,78,0.00,,,-99.99,Weather View 32 v60,2013-07-27 05:00:00,
2013-07-27 00:05:00,48.0,41.5,30.09,SSW,202,0.0,3.0,78,0.00,,,-99.99,Weather View 32 v60,2013-07-27 05:05:00,
2013-07-27 00:10:00,48.0,41.8,30.09,North,0,0.0,3.0,79,0.00,,,-99.99,Weather View 32 v60,2013-07-27 05:10:00,
2013-07-27 00:15:00,49.0,42.8,30.09,WSW,248,0.0,3.0,79,0.00,,,-99.99,Weather View 32 v60,2013-07-27 05:15:00,
2013-07-27 00:20:00,49.0,42.8,30.09,WNW,292,2.0,3.0,79,0.00,,,-99.99,Weather View 32 v60,2013-07-27 05:20:00,
2013-07-27 00:25:00,49.0,42.8,30.09,WNW,292,1.0,3.0,79,0.00,,,-99.99,Weather View 32 v60,2013-07-27 05:25:00,
2013-07-27 00:30:00,49.0,42.8,30.09,WSW,248,1.0,3.0,79,0.00,,,-99.99,Weather View 32 v60,2013-07-27 05:30:00,
2013-07-27 00:35:00,49.0,42.8,30.09,North,0,2.0,3.0,79,0.00,,,-99.99,Weather View 32 v60,2013-07-27 05:35:00,
2013-07-27 00:40:00,49.0,42.8,30.09,WNW,292,1.0,3.0,79,0.00,,,-99.99,Weather View 32 v60,2013-07-27 05:40:00,
2013-07-27 00:45:00,49.0,43.1,30.09,WSW,248,1.0,3.0,80,0.00,,,-99.99,Weather View 32 v60,2013-07-27 05:45:00,
2013-07-27 00:50:00,49.0,43.1,30.09,NW,315,1.0,3.0,80,0.00,,,-99.99,Weather View 32 v60,2013-07-27 05:50:00,
2013-07-27 00:55:00,49.0,43.1,30.09,NNW,338,2.0,3.0,80,0.00,,,-99.99,Weather View 32 v60,2013-07-27 05:55:00,
2013-07-27 01:00:00,49.0,43.1,30.09,WNW,292,1.0,3.0,80,0.00,,,-99.99,Weather View 32 v60,2013-07-27 06:00:00,
2013-07-27 01:05:00,49.0,43.1,30.08,NNW,338,3.0,4.0,80,0.00,,,-99.99,Weather View 32 v60,2013-07-27 06:05:00,
2013-07-27 01:10:00,49.0,43.1,30.08,NNE,22,2.0,6.0,80,0.00,,,-99.99,Weather View 32 v60,2013-07-27 06:10:00,
2013-07-27 01:15:00,49.0,43.4,30.08,NE,45,2.0,6.0,81,0.00,,,-99.99,Weather View 32 v60,2013-07-27 06:15:00,
2013-07-27 01:20:00,49.0,43.4,30.08,NE,45,4.0,8.0,81,0.00,,,-99.99,Weather View 32 v60,2013-07-27 06:20:00,
2013-07-27 01:25:00,49.0,43.4,30.08,NNE,22,5.0,8.0,81,0.00,,,-99.99,Weather View 32 v60,2013-07-27 06:25:00,
2013-07-27 01:30:00,49.0,43.7,30.08,East,90,3.0,8.0,82,0.00,,,-99.99,Weather View 32 v60,2013-07-27 06:30:00,
2013-07-27 01:35:00,49.0,43.7,30.08,NNE,22,1.0,8.0,82,0.00,,,-99.99,Weather View 32 v60,2013-07-27 06:35:00,
2013-07-27 01:40:00,49.0,43.7,30.08,NE,45,2.0,8.0,82,0.00,,,-99.99,Weather View 32 v60,2013-07-27 06:40:00,
2013-07-27 01:45:00,49.0,43.7,30.08,NE,45,1.0,8.0,82,0.00,,,-99.99,Weather View 32 v60,2013-07-27 06:45:00,
2013-07-27 01:50:00,49.0,43.7,30.08,North,0,5.0,8.0,82,0.00,,,-99.99,Weather View 32 v60,2013-07-27 06:50:00,
2013-07-27 01:55:00,49.0,44.1,30.08,NE,45,3.0,8.0,83,0.00,,,-99.99,Weather View 32 v60,2013-07-27 06:55:00,
2013-07-27 02:00:00,49.0,44.1,30.08,NNW,338,3.0,8.0,83,0.00,,,-99.99,Weather View 32 v60,2013-07-27 07:00:00,
2013-07-27 02:05:00,49.0,44.1,30.07,West,270,0.0,8.0,83,0.00,,,-99.99,Weather View 32 v60,2013-07-27 07:05:00,
2013-07-27 02:10:00,49.0,44.1,30.07,North,0,2.0,8.0,83,0.00,,,-99.99,Weather View 32 v60,2013-07-27 07:10:00,
2013-07-27 02:15:00,48.0,43.1,30.07,SW,225,0.0,8.0,83,0.00,,,-99.99,Weather View 32 v60,2013-07-27 07:15:00,
2013-07-27 02:20:00,48.0,43.1,30.07,NE,45,0.0,8.0,83,0.00,,,-99.99,Weather View 32 v60,2013-07-27 07:20:00,
2013-07-27 02:25:00,48.0,43.1,30.07,NW,315,1.0,8.0,83,0.00,,,-99.99,Weather View 32 v60,2013-07-27 07:25:00,
2013-07-27 02:30:00,48.0,43.1,30.07,NNW,338,2.0,7.0,83,0.00,,,-99.99,Weather View 32 v60,2013-07-27 07:30:00,
2013-07-27 02:35:00,47.0,42.1,30.07,NNW,338,2.0,7.0,83,0.00,,,-99.99,Weather View 32 v60,2013-07-27 07:35:00,
2013-07-27 02:40:00,47.0,42.1,30.07,NW,315,1.0,7.0,83,0.00,,,-99.99,Weather View 32 v60,2013-07-27 07:40:00,
2013-07-27 02:45:00,47.0,42.1,30.06,North,0,3.0,7.0,83,0.00,,,-99.99,Weather View 32 v60,2013-07-27 07:45:00,
2013-07-27 02:50:00,47.0,42.4,30.06,NW,315,2.0,7.0,84,0.00,,,-99.99,Weather View 32 v60,2013-07-27 07:50:00,
2013-07-27 02:55:00,47.0,42.4,30.06,North,0,3.0,5.0,84,0.00,,,-99.99,Weather View 32 v60,2013-07-27 07:55:00,
2013-07-27 03:00:00,47.0,42.4,30.06,North,0,2.0,5.0,84,0.00,,,-99.99,Weather View 32 v60,2013-07-27 08:00:00,
2013-07-27 03:05:00,47.0,42.7,30.07,North,0,3.0,5.0,85,0.00,,,-99.99,Weather View 32 v60,2013-07-27 08:05:00,
2013-07-27 03:10:00,47.0,42.7,30.06,North,0,1.0,5.0,85,0.00,,,-99.99,Weather View 32 v60,2013-07-27 08:10:00,
2013-07-27 03:15:00,47.0,42.7,30.07,NNE,22,3.0,5.0,85,0.00,,,-99.99,Weather View 32 v60,2013-07-27 08:15:00,
2013-07-27 03:20:00,47.0,43.0,30.06,NNW,338,4.0,6.0,86,0.00,,,-99.99,Weather View 32 v60,2013-07-27 08:20:00,
2013-07-27 03:25:00,47.0,43.0,30.06,North,0,2.0,6.0,86,0.00,,,-99.99,Weather View 32 v60,2013-07-27 08:25:00,
2013-07-27 03:30:00,47.0,43.0,30.06,NNE,22,3.0,6.0,86,0.00,,,-99.99,Weather View 32 v60,2013-07-27 08:30:00,
2013-07-27 03:35:00,48.0,44.0,30.06,NNW,338,5.0,6.0,86,0.00,,,-99.99,Weather View 32 v60,2013-07-27 08:35:00,
2013-07-27 03:40:00,48.0,44.0,30.06,North,0,4.0,7.0,86,0.00,,,-99.99,Weather View 32 v60,2013-07-27 08:40:00,
2013-07-27 03:45:00,48.0,44.0,30.06,North,0,2.0,7.0,86,0.00,,,-99.99,Weather View 32 v60,2013-07-27 08:45:00,
2013-07-27 03:50:00,48.0,44.0,30.06,North,0,2.0,7.0,86,0.00,,,-99.99,Weather View 32 v60,2013-07-27 08:50:00,
2013-07-27 03:55:00,48.0,44.0,30.06,North,0,3.0,7.0,86,0.00,,,-99.99,Weather View 32 v60,2013-07-27 08:55:00,
2013-07-27 04:00:00,48.0,44.0,30.06,West,270,1.0,8.0,86,0.00,,,-99.99,Weather View 32 v60,2013-07-27 09:00:00,
2013-07-27 04:05:00,48.0,44.0,30.06,NNW,338,2.0,8.0,86,0.00,,,-99.99,Weather View 32 v60,2013-07-27 09:05:00,
2013-07-27 04:10:00,48.0,44.0,30.06,NNW,338,2.0,8.0,86,0.00,,,-99.99,Weather View 32 v60,2013-07-27 09:10:00,
2013-07-27 04:15:00,48.0,44.0,30.06,NNW,338,2.0,8.0,86,0.00,,,-99.99,Weather View 32 v60,2013-07-27 09:15:00,
2013-07-27 04:20:00,48.0,44.0,30.05,NW,315,2.0,8.0,86,0.00,,,-99.99,Weather View 32 v60,2013-07-27 09:20:00,
2013-07-27 04:25:00,48.0,44.0,30.06,North,0,2.0,8.0,86,0.00,,,-99.99,Weather View 32 v60,2013-07-27 09:25:00,
2013-07-27 04:30:00,48.0,44.0,30.06,NNW,338,2.0,8.0,86,0.00,,,-99.99,Weather View 32 v60,2013-07-27 09:30:00,
2013-07-27 04:40:00,48.0,44.0,30.06,North,0,3.0,8.0,86,0.00,,,-99.99,Weather View 32 v60,2013-07-27 09:40:00,
2013-07-27 04:45:00,48.0,44.0,30.05,NW,315,3.0,8.0,86,0.00,,,-99.99,Weather View 32 v60,2013-07-27 09:45:00,
2013-07-27 04:50:00,48.0,44.0,30.05,WNW,292,2.0,8.0,86,0.00,,,-99.99,Weather View 32 v60,2013-07-27 09:50:00,
2013-07-27 04:55:00,49.0,44.7,30.05,NNW,338,3.0,8.0,85,0.00,,,-99.99,Weather View 32 v60,2013-07-27 09:55:00,
2013-07-27 05:00:00,49.0,44.7,30.05,NNW,338,3.0,8.0,85,0.00,,,-99.99,Weather View 32 v60,2013-07-27 10:00:00,
2013-07-27 05:05:00,49.0,44.7,30.05,North,0,3.0,8.0,85,0.00,,,-99.99,Weather View 32 v60,2013-07-27 10:05:00,
2013-07-27 05:15:00,49.0,44.7,30.04,NW,315,10.0,10.0,85,0.00,,,-99.99,Weather View 32 v60,2013-07-27 10:15:00,
2013-07-27 05:20:00,49.0,44.7,30.05,North,0,3.0,10.0,85,0.00,,,-99.99,Weather View 32 v60,2013-07-27 10:20:00,
2013-07-27 05:25:00,49.0,44.7,30.04,North,0,4.0,10.0,85,0.00,,,-99.99,Weather View 32 v60,2013-07-27 10:25:00,
2013-07-27 05:30:00,49.0,44.7,30.04,NW,315,3.0,10.0,85,0.00,,,-99.99,Weather View 32 v60,2013-07-27 10:30:00,
2013-07-27 05:35:00,49.0,44.4,30.04,NW,315,3.0,10.0,84,0.00,,,-99.99,Weather View 32 v60,2013-07-27 10:35:00,
2013-07-27 05:40:00,49.0,44.4,30.05,North,0,5.0,10.0,84,0.00,,,-99.99,Weather View 32 v60,2013-07-27 10:40:00,
2013-07-27 05:50:00,49.0,44.4,30.05,NNW,338,5.0,11.0,84,0.00,,,-99.99,Weather View 32 v60,2013-07-27 10:50:00,
2013-07-27 05:55:00,49.0,44.4,30.04,North,0,6.0,11.0,84,0.00,,,-99.99,Weather View 32 v60,2013-07-27 10:55:00,
2013-07-27 06:00:00,49.0,44.4,30.04,NNW,338,4.0,11.0,84,0.00,,,-99.99,Weather View 32 v60,2013-07-27 11:00:00,
2013-07-27 06:05:00,49.0,44.4,30.04,NW,315,3.0,11.0,84,0.00,,,-99.99,Weather View 32 v60,2013-07-27 11:05:00,
2013-07-27 06:10:00,49.0,44.4,30.04,North,0,3.0,11.0,84,0.00,,,-99.99,Weather View 32 v60,2013-07-27 11:10:00,
2013-07-27 06:15:00,48.0,43.4,30.04,NNW,338,2.0,11.0,84,0.00,,,-99.99,Weather View 32 v60,2013-07-27 11:15:00,
2013-07-27 06:20:00,48.0,43.4,30.04,NNW,338,3.0,11.0,84,0.00,,,-99.99,Weather View 32 v60,2013-07-27 11:20:00,
2013-07-27 06:25:00,48.0,43.4,30.04,North,0,5.0,11.0,84,0.00,,,-99.99,Weather View 32 v60,2013-07-27 11:25:00,
2013-07-27 06:30:00,48.0,43.4,30.04,NW,315,5.0,11.0,84,0.00,,,-99.99,Weather View 32 v60,2013-07-27 11:30:00,
2013-07-27 06:35:00,48.0,43.4,30.04,NW,315,3.0,11.0,84,0.00,,,-99.99,Weather View 32 v60,2013-07-27 11:35:00,
2013-07-27 06:40:00,48.0,43.7,30.04,West,270,4.0,11.0,85,0.00,,,-99.99,Weather View 32 v60,2013-07-27 11:40:00,
2013-07-27 06:45:00,48.0,43.7,30.04,NNW,338,4.0,10.0,85,0.00,,,-99.99,Weather View 32 v60,2013-07-27 11:45:00,
2013-07-27 06:50:00,48.0,43.7,30.04,WNW,292,2.0,10.0,85,0.00,,,-99.99,Weather View 32 v60,2013-07-27 11:50:00,
2013-07-27 06:55:00,48.0,43.7,30.03,NNW,338,4.0,10.0,85,0.00,,,-99.99,Weather View 32 v60,2013-07-27 11:55:00,
2013-07-27 07:00:00,48.0,43.7,30.03,West,270,3.0,10.0,85,0.00,,,-99.99,Weather View 32 v60,2013-07-27 12:00:00,
2013-07-27 07:05:00,48.0,43.4,30.03,North,0,3.0,11.0,84,0.00,,,-99.99,Weather View 32 v60,2013-07-27 12:05:00,
2013-07-27 07:15:00,48.0,43.4,30.03,NW,315,5.0,11.0,84,0.00,,,-99.99,Weather View 32 v60,2013-07-27 12:15:00,
2013-07-27 07:20:00,49.0,44.4,30.03,North,0,6.0,11.0,84,0.00,,,-99.99,Weather View 32 v60,2013-07-27 12:20:00,
2013-07-27 07:25:00,49.0,44.4,30.03,NNW,338,5.0,11.0,84,0.00,,,-99.99,Weather View 32 v60,2013-07-27 12:25:00,
2013-07-27 07:30:00,49.0,44.4,30.02,North,0,6.0,11.0,84,0.00,,,-99.99,Weather View 32 v60,2013-07-27 12:30:00,
2013-07-27 07:35:00,49.0,44.1,30.02,NNW,338,4.0,11.0,83,0.00,,,-99.99,Weather View 32 v60,2013-07-27 12:35:00,
2013-07-27 07:40:00,50.0,45.0,30.02,NNW,338,4.0,11.0,83,0.00,,,-99.99,Weather View 32 v60,2013-07-27 12:40:00,
2013-07-27 07:45:00,50.0,44.7,30.02,NNW,338,4.0,11.0,82,0.00,,,-99.99,Weather View 32 v60,2013-07-27 12:45:00,
2013-07-27 07:50:00,50.0,44.7,30.02,WNW,292,6.0,11.0,82,0.00,,,-99.99,Weather View 32 v60,2013-07-27 12:50:00,
2013-07-27 07:55:00,50.0,44.7,30.02,NNW,338,5.0,11.0,82,0.00,,,-99.99,Weather View 32 v60,2013-07-27 12:55:00,
2013-07-27 08:00:00,50.0,44.4,30.02,NNW,338,3.0,11.0,81,0.00,,,-99.99,Weather View 32 v60,2013-07-27 13:00:00,
2013-07-27 08:05:00,50.0,44.4,30.02,North,0,4.0,11.0,81,0.00,,,-99.99,Weather View 32 v60,2013-07-27 13:05:00,
2013-07-27 08:10:00,51.0,45.4,30.02,North,0,5.0,10.0,81,0.00,,,-99.99,Weather View 32 v60,2013-07-27 13:10:00,
2013-07-27 08:15:00,51.0,45.4,30.02,North,0,5.0,10.0,81,0.00,,,-99.99,Weather View 32 v60,2013-07-27 13:15:00,
2013-07-27 08:20:00,51.0,45.4,30.01,North,0,4.0,10.0,81,0.00,,,-99.99,Weather View 32 v60,2013-07-27 13:20:00,
2013-07-27 08:25:00,51.0,45.0,30.02,WNW,292,1.0,10.0,80,0.00,,,-99.99,Weather View 32 v60,2013-07-27 13:25:00,
2013-07-27 08:30:00,52.0,46.0,30.02,NNE,22,3.0,10.0,80,0.00,,,-99.99,Weather View 32 v60,2013-07-27 13:30:00,
2013-07-27 08:35:00,52.0,45.7,30.01,North,0,4.0,10.0,79,0.00,,,-99.99,Weather View 32 v60,2013-07-27 13:35:00,
2013-07-27 08:40:00,53.0,46.6,30.01,NNW,338,10.0,11.0,79,0.00,,,-99.99,Weather View 32 v60,2013-07-27 13:40:00,
2013-07-27 08:45:00,53.0,46.0,30.01,NNW,338,6.0,11.0,77,0.00,,,-99.99,Weather View 32 v60,2013-07-27 13:45:00,
2013-07-27 08:50:00,53.0,45.6,30.01,NNE,22,5.0,12.0,76,0.00,,,-99.99,Weather View 32 v60,2013-07-27 13:50:00,
2013-07-27 08:55:00,53.0,45.6,30.01,NE,45,5.0,16.0,76,0.00,,,-99.99,Weather View 32 v60,2013-07-27 13:55:00,
2013-07-27 09:00:00,53.0,45.3,30.01,NNW,338,4.0,16.0,75,0.00,,,-99.99,Weather View 32 v60,2013-07-27 14:00:00,
2013-07-27 09:10:00,54.0,46.2,30.01,North,0,13.0,16.0,75,0.00,,,-99.99,Weather View 32 v60,2013-07-27 14:10:00,
2013-07-27 09:15:00,54.0,45.9,30.00,North,0,9.0,16.0,74,0.00,,,-99.99,Weather View 32 v60,2013-07-27 14:15:00,
2013-07-27 09:20:00,54.0,45.5,30.00,NNW,338,8.0,16.0,73,0.00,,,-99.99,Weather View 32 v60,2013-07-27 14:20:00,
2013-07-27 09:25:00,54.0,45.5,30.00,North,0,4.0,16.0,73,0.00,,,-99.99,Weather View 32 v60,2013-07-27 14:25:00,
2013-07-27 09:30:00,54.0,45.5,30.00,NNW,338,5.0,16.0,73,0.00,,,-99.99,Weather View 32 v60,2013-07-27 14:30:00,
2013-07-27 09:35:00,54.0,45.5,30.00,NNE,22,4.0,16.0,73,0.00,,,-99.99,Weather View 32 v60,2013-07-27 14:35:00,
2013-07-27 09:40:00,54.0,45.5,30.00,NNW,338,10.0,16.0,73,0.00,,,-99.99,Weather View 32 v60,2013-07-27 14:40:00,
2013-07-27 09:45:00,54.0,45.2,30.00,NNW,338,8.0,16.0,72,0.00,,,-99.99,Weather View 32 v60,2013-07-27 14:45:00,
2013-07-27 09:50:00,54.0,45.2,29.99,North,0,12.0,17.0,72,0.00,,,-99.99,Weather View 32 v60,2013-07-27 14:50:00,
2013-07-27 09:55:00,55.0,45.4,29.99,North,0,7.0,20.0,70,0.00,,,-99.99,Weather View 32 v60,2013-07-27 14:55:00,
2013-07-27 10:00:00,56.0,45.6,29.99,NNE,22,6.0,22.0,68,0.00,,,-99.99,Weather View 32 v60,2013-07-27 15:00:00,
2013-07-27 10:05:00,56.0,44.8,29.99,NNE,22,6.0,22.0,66,0.00,,,-99.99,Weather View 32 v60,2013-07-27 15:05:00,
2013-07-27 10:10:00,55.0,44.2,29.99,NNW,338,10.0,22.0,67,0.00,,,-99.99,Weather View 32 v60,2013-07-27 15:10:00,
2013-07-27 10:15:00,55.0,45.0,29.99,North,0,5.0,22.0,69,0.00,,,-99.99,Weather View 32 v60,2013-07-27 15:15:00,
2013-07-27 10:20:00,54.0,43.7,29.99,North,0,9.0,23.0,68,0.00,,,-99.99,Weather View 32 v60,2013-07-27 15:20:00,
2013-07-27 10:30:00,54.0,44.0,29.99,NNE,22,11.0,23.0,69,0.00,,,-99.99,Weather View 32 v60,2013-07-27 15:30:00,
2013-07-27 10:35:00,54.0,44.4,29.99,NE,45,8.0,23.0,70,0.00,,,-99.99,Weather View 32 v60,2013-07-27 15:35:00,
2013-07-27 10:40:00,54.0,44.0,29.99,NNE,22,14.0,23.0,69,0.00,,,-99.99,Weather View 32 v60,2013-07-27 15:40:00,
2013-07-27 10:45:00,54.0,43.7,29.99,North,0,5.0,23.0,68,0.00,,,-99.99,Weather View 32 v60,2013-07-27 15:45:00,
2013-07-27 10:50:00,55.0,44.2,29.99,NE,45,12.0,23.0,67,0.00,,,-99.99,Weather View 32 v60,2013-07-27 15:50:00,
2013-07-27 10:55:00,54.0,42.9,29.99,NNW,338,8.0,23.0,66,0.00,,,-99.99,Weather View 32 v60,2013-07-27 15:55:00,
2013-07-27 11:00:00,53.0,43.1,29.99,North,0,4.0,23.0,69,0.00,,,-99.99,Weather View 32 v60,2013-07-27 16:00:00,
2013-07-27 11:05:00,52.0,43.2,29.99,North,0,9.0,23.0,72,0.00,,,-99.99,Weather View 32 v60,2013-07-27 16:05:00,
2013-07-27 11:10:00,51.0,43.3,29.99,North,0,7.0,23.0,75,0.00,,,-99.99,Weather View 32 v60,2013-07-27 16:10:00,
2013-07-27 11:15:00,50.0,43.1,29.99,NNE,22,3.0,23.0,77,0.01,,,-99.99,Weather View 32 v60,2013-07-27 16:15:00,
2013-07-27 11:25:00,50.0,44.1,29.99,NE,45,3.0,18.0,80,0.01,,,-99.99,Weather View 32 v60,2013-07-27 16:25:00,
2013-07-27 11:30:00,51.0,45.4,29.98,NW,315,3.0,18.0,81,0.01,,,-99.99,Weather View 32 v60,2013-07-27 16:30:00,
2013-07-27 11:40:00,51.0,45.7,29.98,NNW,338,6.0,17.0,82,0.01,,,-99.99,Weather View 32 v60,2013-07-27 16:40:00,
2013-07-27 11:45:00,51.0,45.7,29.98,WNW,292,6.0,17.0,82,0.01,,,-99.99,Weather View 32 v60,2013-07-27 16:45:00,
2013-07-27 11:50:00,52.0,47.0,29.98,North,0,6.0,17.0,83,0.01,,,-99.99,Weather View 32 v60,2013-07-27 16:50:00,
2013-07-27 11:55:00,52.0,47.0,29.98,NNW,338,5.0,17.0,83,0.01,,,-99.99,Weather View 32 v60,2013-07-27 16:55:00,
2013-07-27 12:00:00,52.0,46.7,29.97,North,0,6.0,14.0,82,0.01,,,-99.99,Weather View 32 v60,2013-07-27 17:00:00,
2013-07-27 12:05:00,53.0,47.3,29.97,NNE,22,6.0,14.0,81,0.01,,,-99.99,Weather View 32 v60,2013-07-27 17:05:00,
2013-07-27 12:10:00,53.0,47.3,29.97,NW,315,9.0,14.0,81,0.01,,,-99.99,Weather View 32 v60,2013-07-27 17:10:00,
2013-07-27 12:15:00,53.0,47.3,29.97,NW,315,3.0,13.0,81,0.00,,,-99.99,Weather View 32 v60,2013-07-27 17:15:00,
2013-07-27 12:20:00,53.0,47.0,29.97,North,0,6.0,13.0,80,0.00,,,-99.99,Weather View 32 v60,2013-07-27 17:20:00,
2013-07-27 12:25:00,53.0,47.0,29.97,North,0,5.0,13.0,80,0.00,,,-99.99,Weather View 32 v60,2013-07-27 17:25:00,
2013-07-27 12:30:00,53.0,46.6,29.96,NNW,338,10.0,13.0,79,0.00,,,-99.99,Weather View 32 v60,2013-07-27 17:30:00,
2013-07-27 12:40:00,53.0,46.6,29.96,NNW,338,10.0,12.0,79,0.00,,,-99.99,Weather View 32 v60,2013-07-27 17:40:00,
2013-07-27 12:45:00,53.0,46.6,29.96,NNW,338,3.0,12.0,79,0.00,,,-99.99,Weather View 32 v60,2013-07-27 17:45:00,
2013-07-27 12:50:00,53.0,46.6,29.96,NNW,338,10.0,12.0,79,0.00,,,-99.99,Weather View 32 v60,2013-07-27 17:50:00,
2013-07-27 12:55:00,53.0,46.6,29.96,NW,315,8.0,13.0,79,0.00,,,-99.99,Weather View 32 v60,2013-07-27 17:55:00,
2013-07-27 13:00:00,53.0,46.6,29.96,North,0,4.0,13.0,79,0.00,,,-99.99,Weather View 32 v60,2013-07-27 18:00:00,
2013-07-27 13:05:00,53.0,47.0,29.96,North,0,4.0,13.0,80,0.00,,,-99.99,Weather View 32 v60,2013-07-27 18:05:00,
2013-07-27 13:10:00,53.0,47.0,29.97,NNE,22,6.0,13.0,80,0.00,,,-99.99,Weather View 32 v60,2013-07-27 18:10:00,
2013-07-27 13:15:00,52.0,46.3,29.97,North,0,4.0,13.0,81,0.01,,,-99.99,Weather View 32 v60,2013-07-27 18:15:00,
2013-07-27 13:20:00,52.0,46.7,29.97,NNW,338,3.0,13.0,82,0.01,,,-99.99,Weather View 32 v60,2013-07-27 18:20:00,
2013-07-27 13:25:00,52.0,47.0,29.97,NNW,338,5.0,13.0,83,0.02,,,-99.99,Weather View 32 v60,2013-07-27 18:25:00,
2013-07-27 13:30:00,53.0,48.3,29.96,North,0,3.0,13.0,84,0.02,,,-99.99,Weather View 32 v60,2013-07-27 18:30:00,
2013-07-27 13:35:00,53.0,48.3,29.96,NNE,22,3.0,13.0,84,0.02,,,-99.99,Weather View 32 v60,2013-07-27 18:35:00,
2013-07-27 13:40:00,54.0,49.3,29.96,North,0,3.0,13.0,84,0.02,,,-99.99,Weather View 32 v60,2013-07-27 18:40:00,
2013-07-27 13:45:00,54.0,49.6,29.96,NNW,338,6.0,13.0,85,0.02,,,-99.99,Weather View 32 v60,2013-07-27 18:45:00,
2013-07-27 13:50:00,54.0,49.3,29.96,North,0,8.0,13.0,84,0.03,,,-99.99,Weather View 32 v60,2013-07-27 18:50:00,
2013-07-27 13:55:00,54.0,49.3,29.95,NE,45,3.0,12.0,84,0.03,,,-99.99,Weather View 32 v60,2013-07-27 18:55:00,
2013-07-27 14:00:00,54.0,49.6,29.95,NNW,338,4.0,12.0,85,0.03,,,-99.99,Weather View 32 v60,2013-07-27 19:00:00,
2013-07-27 14:05:00,54.0,49.6,29.95,NW,315,5.0,12.0,85,0.03,,,-99.99,Weather View 32 v60,2013-07-27 19:05:00,
2013-07-27 14:10:00,54.0,49.6,29.95,NNW,338,4.0,12.0,85,0.03,,,-99.99,Weather View 32 v60,2013-07-27 19:10:00,
2013-07-27 14:15:00,54.0,49.6,29.95,NNW,338,3.0,12.0,85,0.02,,,-99.99,Weather View 32 v60,2013-07-27 19:15:00,
2013-07-27 14:20:00,54.0,49.3,29.95,NNW,338,5.0,12.0,84,0.02,,,-99.99,Weather View 32 v60,2013-07-27 19:20:00,
2013-07-27 14:25:00,54.0,49.6,29.95,NW,315,4.0,12.0,85,0.01,,,-99.99,Weather View 32 v60,2013-07-27 19:25:00,
2013-07-27 14:35:00,54.0,49.6,29.94,WNW,292,1.0,12.0,85,0.01,,,-99.99,Weather View 32 v60,2013-07-27 19:35:00,
2013-07-27 14:40:00,54.0,49.6,29.94,NNW,338,5.0,12.0,85,0.01,,,-99.99,Weather View 32 v60,2013-07-27 19:40:00,
2013-07-27 14:46:00,54.0,49.6,29.94,NW,315,3.0,12.0,85,0.01,,,-99.99,Weather View 32 v60,2013-07-27 19:46:00,
2013-07-27 14:55:00,55.0,50.6,29.94,NNW,338,2.0,10.0,85,0.01,,,-99.99,Weather View 32 v60,2013-07-27 19:55:00,
2013-07-27 15:00:00,55.0,50.6,29.94,NNW,338,2.0,10.0,85,0.01,,,-99.99,Weather View 32 v60,2013-07-27 20:00:00,
2013-07-27 15:05:00,55.0,50.6,29.94,North,0,3.0,10.0,85,0.01,,,-99.99,Weather View 32 v60,2013-07-27 20:05:00,
2013-07-27 15:10:00,55.0,50.2,29.94,NE,45,3.0,10.0,84,0.02,,,-99.99,Weather View 32 v60,2013-07-27 20:10:00,
2013-07-27 15:15:00,54.0,49.3,29.94,NNE,22,3.0,8.0,84,0.04,,,-99.99,Weather View 32 v60,2013-07-27 20:15:00,
2013-07-27 15:20:00,54.0,49.6,29.94,NNE,22,3.0,7.0,85,0.04,,,-99.99,Weather View 32 v60,2013-07-27 20:20:00,
2013-07-27 15:30:00,54.0,49.9,29.94,NNW,338,3.0,7.0,86,0.05,,,-99.99,Weather View 32 v60,2013-07-27 20:30:00,
2013-07-27 15:35:00,55.0,50.9,29.94,WNW,292,5.0,7.0,86,0.05,,,-99.99,Weather View 32 v60,2013-07-27 20:35:00,
2013-07-27 15:40:00,55.0,50.9,29.94,NNE,22,5.0,10.0,86,0.06,,,-99.99,Weather View 32 v60,2013-07-27 20:40:00,
2013-07-27 15:45:00,55.0,50.9,29.94,North,0,3.0,11.0,86,0.06,,,-99.99,Weather View 32 v60,2013-07-27 20:45:00,
2013-07-27 15:50:00,54.0,49.9,29.94,North,0,5.0,11.0,86,0.05,,,-99.99,Weather View 32 v60,2013-07-27 20:50:00,
2013-07-27 15:55:00,54.0,49.9,29.94,NNE,22,4.0,11.0,86,0.05,,,-99.99,Weather View 32 v60,2013-07-27 20:55:00,
2013-07-27 16:00:00,54.0,49.9,29.93,NNW,338,11.0,11.0,86,0.05,,,-99.99,Weather View 32 v60,2013-07-27 21:00:00,
2013-07-27 16:05:00,54.0,49.9,29.93,NW,315,6.0,11.0,86,0.06,,,-99.99,Weather View 32 v60,2013-07-27 21:05:00,
2013-07-27 16:10:00,54.0,49.9,29.93,North,0,5.0,11.0,86,0.05,,,-99.99,Weather View 32 v60,2013-07-27 21:10:00,
2013-07-27 16:15:00,54.0,49.9,29.93,North,0,5.0,11.0,86,0.03,,,-99.99,Weather View 32 v60,2013-07-27 21:15:00,
2013-07-27 16:20:00,55.0,51.2,29.93,WNW,292,6.0,11.0,87,0.03,,,-99.99,Weather View 32 v60,2013-07-27 21:20:00,
2013-07-27 16:25:00,55.0,51.2,29.93,NNW,338,3.0,11.0,87,0.02,,,-99.99,Weather View 32 v60,2013-07-27 21:25:00,
2013-07-27 16:30:00,55.0,51.2,29.93,NW,315,5.0,11.0,87,0.02,,,-99.99,Weather View 32 v60,2013-07-27 21:30:00,
2013-07-27 16:35:00,55.0,51.2,29.93,North,0,4.0,13.0,87,0.02,,,-99.99,Weather View 32 v60,2013-07-27 21:35:00,
2013-07-27 16:40:00,55.0,51.2,29.93,NNE,22,5.0,13.0,87,0.01,,,-99.99,Weather View 32 v60,2013-07-27 21:40:00,
2013-07-27 16:45:00,55.0,51.2,29.93,North,0,9.0,13.0,87,0.01,,,-99.99,Weather View 32 v60,2013-07-27 21:45:00,
2013-07-27 16:50:00,55.0,50.9,29.93,North,0,6.0,13.0,86,0.01,,,-99.99,Weather View 32 v60,2013-07-27 21:50:00,
2013-07-27 16:55:00,56.0,52.2,29.93,NE,45,10.0,13.0,87,0.01,,,-99.99,Weather View 32 v60,2013-07-27 21:55:00,
2013-07-27 17:05:00,55.0,50.6,29.93,NNE,22,7.0,14.0,85,0.00,,,-99.99,Weather View 32 v60,2013-07-27 22:05:00,
2013-07-27 17:10:00,55.0,50.6,29.93,North,0,5.0,14.0,85,0.00,,,-99.99,Weather View 32 v60,2013-07-27 22:10:00,
2013-07-27 17:15:00,55.0,50.6,29.93,NNE,22,4.0,14.0,85,0.00,,,-99.99,Weather View 32 v60,2013-07-27 22:15:00,
2013-07-27 17:20:00,55.0,50.6,29.93,NE,45,10.0,14.0,85,0.01,,,-99.99,Weather View 32 v60,2013-07-27 22:20:00,
2013-07-27 17:25:00,54.0,49.6,29.93,NNE,22,13.0,14.0,85,0.01,,,-99.99,Weather View 32 v60,2013-07-27 22:25:00,
2013-07-27 17:30:00,54.0,49.6,29.93,NW,315,3.0,14.0,85,0.01,,,-99.99,Weather View 32 v60,2013-07-27 22:30:00,
2013-07-27 17:35:00,53.0,48.6,29.93,NE,45,5.0,14.0,85,0.01,,,-99.99,Weather View 32 v60,2013-07-27 22:35:00,
2013-07-27 17:40:00,53.0,48.6,29.93,North,0,3.0,14.0,85,0.01,,,-99.99,Weather View 32 v60,2013-07-27 22:40:00,
2013-07-27 17:45:00,53.0,48.9,29.93,NNE,22,5.0,14.0,86,0.01,,,-99.99,Weather View 32 v60,2013-07-27 22:45:00,
2013-07-27 17:50:00,53.0,48.9,29.93,NNW,338,3.0,14.0,86,0.01,,,-99.99,Weather View 32 v60,2013-07-27 22:50:00,
2013-07-27 17:55:00,53.0,48.9,29.93,NNE,22,4.0,14.0,86,0.01,,,-99.99,Weather View 32 v60,2013-07-27 22:55:00,
2013-07-27 18:00:00,53.0,48.9,29.93,NNW,338,5.0,14.0,86,0.01,,,-99.99,Weather View 32 v60,2013-07-27 23:00:00,
2013-07-27 18:05:00,53.0,48.9,29.93,North,0,8.0,14.0,86,0.01,,,-99.99,Weather View 32 v60,2013-07-27 23:05:00,
2013-07-27 18:15:00,53.0,48.9,29.92,NNW,338,5.0,14.0,86,0.01,,,-99.99,Weather View 32 v60,2013-07-27 23:15:00,
2013-07-27 18:20:00,53.0,48.9,29.92,East,90,4.0,14.0,86,0.00,,,-99.99,Weather View 32 v60,2013-07-27 23:20:00,
2013-07-27 18:25:00,53.0,48.9,29.92,NNW,338,5.0,14.0,86,0.00,,,-99.99,Weather View 32 v60,2013-07-27 23:25:00,
2013-07-27 18:30:00,53.0,48.9,29.92,North,0,5.0,14.0,86,0.00,,,-99.99,Weather View 32 v60,2013-07-27 23:30:00,
2013-07-27 18:35:00,53.0,48.9,29.92,NNW,338,4.0,14.0,86,0.00,,,-99.99,Weather View 32 v60,2013-07-27 23:35:00,
2013-07-27 18:45:00,53.0,48.6,29.92,NNE,22,3.0,14.0,85,0.00,,,-99.99,Weather View 32 v60,2013-07-27 23:45:00,
2013-07-27 18:50:00,53.0,48.9,29.92,NNE,22,3.0,14.0,86,0.00,,,-99.99,Weather View 32 v60,2013-07-27 23:50:00,
2013-07-27 18:55:00,54.0,49.6,29.93,NNW,338,3.0,14.0,85,0.00,,,-99.99,Weather View 32 v60,2013-07-27 23:55:00,
2013-07-27 19:00:00,53.0,48.6,29.93,North,0,3.0,14.0,85,0.00,,,-99.99,Weather View 32 v60,2013-07-28 00:00:00,
2013-07-27 19:05:00,53.0,48.6,29.93,NW,315,3.0,14.0,85,0.00,,,-99.99,Weather View 32 v60,2013-07-28 00:05:00,
2013-07-27 19:10:00,53.0,48.6,29.93,NE,45,6.0,14.0,85,0.00,,,-99.99,Weather View 32 v60,2013-07-28 00:10:00,
2013-07-27 19:15:00,53.0,48.6,29.93,NNE,22,5.0,12.0,85,0.00,,,-99.99,Weather View 32 v60,2013-07-28 00:15:00,
2013-07-27 19:21:00,53.0,48.6,29.93,North,0,3.0,12.0,85,0.00,,,-99.99,Weather View 32 v60,2013-07-28 00:21:00,
2013-07-27 19:30:00,53.0,48.6,29.93,North,0,3.0,12.0,85,0.00,,,-99.99,Weather View 32 v60,2013-07-28 00:30:00,
2013-07-27 19:35:00,53.0,48.6,29.93,NNW,338,7.0,14.0,85,0.00,,,-99.99,Weather View 32 v60,2013-07-28 00:35:00,
2013-07-27 19:40:00,53.0,48.3,29.93,SW,225,4.0,14.0,84,0.00,,,-99.99,Weather View 32 v60,2013-07-28 00:40:00,
2013-07-27 19:45:00,53.0,48.3,29.93,NNE,22,8.0,14.0,84,0.00,,,-99.99,Weather View 32 v60,2013-07-28 00:45:00,
2013-07-27 19:50:00,53.0,48.3,29.93,North,0,8.0,14.0,84,0.00,,,-99.99,Weather View 32 v60,2013-07-28 00:50:00,
2013-07-27 19:55:00,53.0,48.0,29.93,North,0,5.0,14.0,83,0.00,,,-99.99,Weather View 32 v60,2013-07-28 00:55:00,
2013-07-27 20:00:00,53.0,48.0,29.93,NNE,22,6.0,14.0,83,0.00,,,-99.99,Weather View 32 v60,2013-07-28 01:00:00,
2013-07-27 20:05:00,53.0,48.0,29.93,North,0,5.0,14.0,83,0.00,,,-99.99,Weather View 32 v60,2013-07-28 01:05:00,
2013-07-27 20:10:00,53.0,48.0,29.93,NNE,22,7.0,14.0,83,0.00,,,-99.99,Weather View 32 v60,2013-07-28 01:10:00,
2013-07-27 20:20:00,53.0,48.0,29.93,NNE,22,7.0,14.0,83,0.00,,,-99.99,Weather View 32 v60,2013-07-28 01:20:00,
2013-07-27 20:25:00,53.0,48.0,29.93,NE,45,7.0,14.0,83,0.00,,,-99.99,Weather View 32 v60,2013-07-28 01:25:00,
2013-07-27 20:30:00,53.0,48.0,29.93,North,0,8.0,14.0,83,0.00,,,-99.99,Weather View 32 v60,2013-07-28 01:30:00,
2013-07-27 20:35:00,53.0,48.0,29.93,ENE,68,4.0,12.0,83,0.00,,,-99.99,Weather View 32 v60,2013-07-28 01:35:00,
2013-07-27 20:40:00,53.0,48.0,29.93,NW,315,3.0,12.0,83,0.00,,,-99.99,Weather View 32 v60,2013-07-28 01:40:00,
2013-07-27 20:49:00,53.0,48.0,29.93,North,0,6.0,12.0,83,0.00,,,-99.99,Weather View 32 v60,2013-07-28 01:49:00,
2013-07-27 20:55:00,53.0,48.0,29.93,NE,45,4.0,12.0,83,0.00,,,-99.99,Weather View 32 v60,2013-07-28 01:55:00,
2013-07-27 21:00:00,52.0,47.0,29.93,North,0,7.0,12.0,83,0.00,,,-99.99,Weather View 32 v60,2013-07-28 02:00:00,
2013-07-27 21:05:00,52.0,47.0,29.93,ENE,68,5.0,13.0,83,0.00,,,-99.99,Weather View 32 v60,2013-07-28 02:05:00,
2013-07-27 21:10:00,52.0,47.0,29.94,NNE,22,3.0,13.0,83,0.00,,,-99.99,Weather View 32 v60,2013-07-28 02:10:00,
2013-07-27 21:15:00,52.0,47.0,29.94,NW,315,2.0,13.0,83,0.00,,,-99.99,Weather View 32 v60,2013-07-28 02:15:00,
2013-07-27 21:20:00,52.0,47.0,29.94,NNE,22,5.0,13.0,83,0.00,,,-99.99,Weather View 32 v60,2013-07-28 02:20:00,
2013-07-27 21:25:00,52.0,47.0,29.94,NNE,22,4.0,13.0,83,0.00,,,-99.99,Weather View 32 v60,2013-07-28 02:25:00,
2013-07-27 21:30:00,52.0,47.0,29.94,North,0,3.0,13.0,83,0.00,,,-99.99,Weather View 32 v60,2013-07-28 02:30:00,
2013-07-27 21:35:00,52.0,47.0,29.95,North,0,5.0,13.0,83,0.00,,,-99.99,Weather View 32 v60,2013-07-28 02:35:00,
2013-07-27 21:40:00,52.0,47.0,29.95,NNW,338,6.0,13.0,83,0.00,,,-99.99,Weather View 32 v60,2013-07-28 02:40:00,
2013-07-27 21:45:00,52.0,47.0,29.95,NE,45,3.0,13.0,83,0.00,,,-99.99,Weather View 32 v60,2013-07-28 02:45:00,
2013-07-27 21:50:00,52.0,47.0,29.95,NE,45,4.0,13.0,83,0.00,,,-99.99,Weather View 32 v60,2013-07-28 02:50:00,
2013-07-27 21:55:00,52.0,47.0,29.94,North,0,5.0,13.0,83,0.00,,,-99.99,Weather View 32 v60,2013-07-28 02:55:00,
2013-07-27 22:00:00,52.0,47.0,29.95,North,0,5.0,13.0,83,0.00,,,-99.99,Weather View 32 v60,2013-07-28 03:00:00,
2013-07-27 22:05:00,52.0,47.3,29.95,NE,45,6.0,11.0,84,0.00,,,-99.99,Weather View 32 v60,2013-07-28 03:05:00,
2013-07-27 22:15:00,52.0,47.3,29.95,NNE,22,4.0,11.0,84,0.00,,,-99.99,Weather View 32 v60,2013-07-28 03:15:00,
2013-07-27 22:20:00,52.0,47.0,29.95,NNW,338,3.0,11.0,83,0.00,,,-99.99,Weather View 32 v60,2013-07-28 03:20:00,
2013-07-27 22:25:00,52.0,47.0,29.95,NW,315,3.0,12.0,83,0.00,,,-99.99,Weather View 32 v60,2013-07-28 03:25:00,
2013-07-27 22:30:00,52.0,47.0,29.95,NNE,22,5.0,12.0,83,0.00,,,-99.99,Weather View 32 v60,2013-07-28 03:30:00,
2013-07-27 22:35:00,52.0,47.3,29.95,NNE,22,5.0,12.0,84,0.00,,,-99.99,Weather View 32 v60,2013-07-28 03:35:00,
2013-07-27 22:40:00,52.0,47.3,29.95,NNW,338,2.0,12.0,84,0.00,,,-99.99,Weather View 32 v60,2013-07-28 03:40:00,
2013-07-27 22:45:00,52.0,47.3,29.95,ENE,68,2.0,12.0,84,0.00,,,-99.99,Weather View 32 v60,2013-07-28 03:45:00,
2013-07-27 22:55:00,52.0,47.0,29.95,NNW,338,6.0,12.0,83,0.00,,,-99.99,Weather View 32 v60,2013-07-28 03:55:00,
2013-07-27 23:00:00,52.0,47.0,29.95,NNW,338,2.0,12.0,83,0.00,,,-99.99,Weather View 32 v60,2013-07-28 04:00:00,
2013-07-27 23:05:00,52.0,47.0,29.95,North,0,6.0,12.0,83,0.00,,,-99.99,Weather View 32 v60,2013-07-28 04:05:00,
2013-07-27 23:10:00,51.0,46.0,29.95,NNW,338,3.0,12.0,83,0.00,,,-99.99,Weather View 32 v60,2013-07-28 04:10:00,
2013-07-27 23:15:00,51.0,46.3,29.95,NNW,338,3.0,12.0,84,0.00,,,-99.99,Weather View 32 v60,2013-07-28 04:15:00,
2013-07-27 23:20:00,51.0,46.3,29.95,North,0,2.0,12.0,84,0.00,,,-99.99,Weather View 32 v60,2013-07-28 04:20:00,
2013-07-27 23:25:00,51.0,46.3,29.95,North,0,2.0,10.0,84,0.00,,,-99.99,Weather View 32 v60,2013-07-28 04:25:00,
2013-07-27 23:30:00,51.0,46.3,29.95,NNW,338,3.0,9.0,84,0.00,,,-99.99,Weather View 32 v60,2013-07-28 04:30:00,
2013-07-27 23:35:00,51.0,46.3,29.95,North,0,3.0,10.0,84,0.00,,,-99.99,Weather View 32 v60,2013-07-28 04:35:00,
2013-07-27 23:45:00,51.0,46.3,29.96,North,0,2.0,10.0,84,0.00,,,-99.99,Weather View 32 v60,2013-07-28 04:45:00,
2013-07-27 23:51:00,51.0,46.3,29.96,NNE,22,3.0,10.0,84,0.00,,,-99.99,Weather View 32 v60,2013-07-28 04:51:00,